Location: Unspecified
(0.0000°N, 0.0000°E)
Time: 04:27:21
(UTC+00:00)

Courier 1B Rocket - All Passes

Search period start: 25 August 2016 00:00
Search period end: 04 September 2016 00:00
Orbit: 920 x 1202 km, 28.2° (Epoch: 24 August)

Date Brightness Start Highest point End Pass type
(mag) Time Alt. Az. Time Alt. Az. Time Alt. Az.
25 Aug - 00:49:16 10° NW 00:55:41 80° NNE 01:02:33 10° ESE night (unlit)
25 Aug - 02:43:40 10° W 02:49:24 30° SSW 02:55:32 10° SSE visible
25 Aug - 04:43:22 10° SSW 04:44:11 10° SSW 04:45:00 10° S visible
25 Aug - 10:26:09 10° SSW 10:32:01 23° SSE 10:37:46 10° ESE daylight
25 Aug - 12:18:33 10° SW 12:26:15 68° SSE 12:33:31 10° ENE daylight
25 Aug - 14:13:14 10° W 14:20:00 37° NNW 14:26:23 10° NE daylight
25 Aug - 16:12:45 10° NW 16:14:15 11° NNW 16:15:45 10° N daylight
25 Aug - 21:57:52 10° N 22:00:55 14° NNE 22:03:59 10° NE night (unlit)
25 Aug - 23:48:36 10° NW 23:54:41 51° NNE 00:01:06 10° ESE night (unlit)
26 Aug - 01:42:05 10° W 01:48:12 43° SSW 01:54:45 10° SE night (unlit)
26 Aug - 03:39:06 10° SW 03:42:31 14° SSW 03:46:03 10° S visible
26 Aug - 09:25:50 10° SSW 09:30:24 16° SSE 09:34:57 10° ESE daylight
26 Aug - 11:17:28 10° SW 11:24:56 47° SSE 11:32:06 10° E daylight
26 Aug - 13:11:19 10° WSW 13:18:48 56° NNW 13:25:49 10° NE daylight
26 Aug - 15:08:24 10° WNW 15:12:48 17° NNW 15:17:02 10° NNE daylight
26 Aug - 22:48:09 10° NNW 22:53:40 33° NNE 22:59:21 10° E night (unlit)
27 Aug - 00:40:50 10° WNW 00:47:06 66° SSW 00:53:48 10° SE night (unlit)
27 Aug - 02:36:25 10° WSW 02:41:02 19° SSW 02:45:53 10° SSE visible
27 Aug - 08:26:15 10° S 08:28:40 11° SSE 08:31:04 10° SE daylight
27 Aug - 10:16:39 10° SW 10:23:32 33° SSE 10:30:17 10° E daylight
27 Aug - 12:09:43 10° WSW 12:17:33 82° NNW 12:24:59 10° ENE daylight
27 Aug - 14:05:28 10° W 14:11:26 25° NNW 14:17:07 10° NNE daylight
27 Aug - 21:47:58 10° NNW 21:52:35 21° NNE 21:57:14 10° ENE visible
27 Aug - 23:39:51 10° WNW 23:46:07 82° NNE 23:52:41 10° ESE night (unlit)
28 Aug - 01:34:21 10° W 01:39:44 28° SSW 01:45:25 10° SSE night (unlit)
28 Aug - 09:16:04 10° SSW 09:22:02 23° SSE 09:27:59 10° ESE daylight
28 Aug - 11:08:25 10° SW 11:16:15 70° SSE 11:23:49 10° ENE daylight
28 Aug - 13:03:07 10° W 13:10:07 37° NNW 13:16:47 10° NE daylight
28 Aug - 15:02:17 10° NW 15:04:31 11° NNW 15:06:42 10° N daylight
28 Aug - 20:48:12 10° N 20:51:22 14° NNE 20:54:32 10° NE visible
28 Aug - 22:39:07 10° NW 22:45:09 52° NNE 22:51:20 10° ESE night (unlit)
29 Aug - 00:32:42 10° W 00:38:35 41° SSW 00:44:45 10° SE night (unlit)
29 Aug - 02:30:05 10° SW 02:32:49 13° SSW 02:35:37 10° S night (unlit)
29 Aug - 08:15:51 10° SSW 08:20:27 16° SSE 08:25:04 10° ESE daylight
29 Aug - 10:07:24 10° SW 10:14:54 48° SSE 10:22:19 10° ENE daylight
29 Aug - 12:01:12 10° WSW 12:08:49 55° NNW 12:16:09 10° NE daylight
29 Aug - 13:58:15 10° WNW 14:02:59 17° NNW 14:07:33 10° NNE daylight
29 Aug - 21:38:35 10° NW 21:44:09 33° NNE 21:49:44 10° E visible
29 Aug - 23:31:23 10° WNW 23:37:34 63° SSW 23:43:57 10° SE night (unlit)
30 Aug - 01:27:12 10° WSW 01:31:24 18° SSW 01:35:44 10° SSE night (unlit)
30 Aug - 07:16:28 10° S 07:18:44 11° SSE 07:21:02 10° SE daylight
30 Aug - 09:06:38 10° SW 09:13:30 34° SSE 09:20:25 10° E daylight
30 Aug - 10:59:38 10° WSW 11:07:31 80° NNW 11:15:13 10° NE daylight
30 Aug - 12:55:21 10° W 13:01:32 26° NNW 13:07:30 10° NNE daylight
30 Aug - 20:38:17 10° NNW 20:43:03 22° NNE 20:47:46 10° ENE visible
30 Aug - 22:30:21 10° WNW 22:36:36 84° NNE 22:42:57 10° ESE night (unlit)
31 Aug - 00:25:02 10° W 00:30:09 26° SSW 00:35:26 10° SSE night (unlit)
31 Aug - 08:06:09 10° SSW 08:12:03 24° SSE 08:18:02 10° ESE daylight
31 Aug - 09:58:24 10° SW 10:06:12 72° SSE 10:13:58 10° ENE daylight
31 Aug - 11:53:02 10° W 12:00:08 37° NNW 12:07:03 10° NE daylight
31 Aug - 13:51:57 10° NW 13:54:41 12° NNW 13:57:22 10° N daylight
31 Aug - 19:38:17 10° N 19:41:48 15° NNE 19:45:15 10° ENE visible
31 Aug - 21:29:31 10° NW 21:35:38 54° NNE 21:41:44 10° ESE visible
31 Aug - 23:23:18 10° W 23:29:03 39° SSW 23:34:56 10° SE night (unlit)
01 Sep - 01:21:15 10° SW 01:23:11 11° SSW 01:25:09 10° S night (unlit)
01 Sep - 07:06:04 10° SSW 07:10:30 16° SSE 07:15:01 10° ESE daylight
01 Sep - 08:57:26 10° SW 09:04:51 49° SSE 09:12:23 10° ENE daylight
01 Sep - 10:51:10 10° WSW 10:58:47 54° NNW 11:06:19 10° NE daylight
01 Sep - 12:48:08 10° WNW 12:53:04 18° NNW 12:57:55 10° NNE daylight
01 Sep - 18:39:32 10° NNE 18:40:23 10° NNE 18:41:14 10° NNE visible
01 Sep - 20:28:53 10° NW 20:34:38 35° NNE 20:40:15 10° E visible
01 Sep - 22:21:53 10° WNW 22:28:03 60° SSW 22:34:15 10° SE night (unlit)
02 Sep - 00:17:58 10° WSW 00:21:48 17° SSW 00:25:44 10° SSE night (unlit)
02 Sep - 06:07:03 10° S 06:08:52 11° SSE 06:10:42 10° SE daylight
02 Sep - 07:56:46 10° SW 08:03:30 34° SSE 08:10:25 10° E daylight
02 Sep - 09:49:40 10° WSW 09:57:27 79° NNW 10:05:18 10° NE daylight
02 Sep - 11:45:18 10° W 11:51:33 26° NNW 11:57:43 10° NNE daylight
02 Sep - 19:28:25 10° NNW 19:33:30 23° NNE 19:38:24 10° ENE visible
02 Sep - 21:20:44 10° WNW 21:27:06 87° NNE 21:33:21 10° ESE visible
02 Sep - 23:15:39 10° W 23:20:36 25° SSW 23:25:38 10° SSE night (unlit)
03 Sep - 06:56:24 10° SSW 07:02:06 23° SSE 07:07:58 10° ESE daylight
03 Sep - 08:48:30 10° SW 08:56:08 73° SSE 09:03:58 10° ENE daylight
03 Sep - 10:43:03 10° W 10:50:07 37° NNW 10:57:10 10° NE daylight
03 Sep - 12:41:46 10° NW 12:44:47 12° NNW 12:47:48 10° N daylight
03 Sep - 18:28:12 10° NNW 18:32:13 16° NNE 18:36:05 10° ENE visible
03 Sep - 20:19:47 10° NW 20:26:08 56° NNE 20:32:15 10° ESE visible
03 Sep - 22:13:47 10° W 22:19:32 37° SSW 22:25:16 10° SE night (unlit)
